Location: Newark
(47.3150°N, 5.1150°E)
Time: 23:30:44
(UTC+00:00)

AO-7 - Pass Details

Date: 16 December 2019
Orbit: 1440 x 1458 km, 101.8° (Epoch: 20 January)

Event Time Altitude Azimuth Distance (km) Brightness Sun altitude
Rises 03:29:19 0° 19° (NNE) 4,563 ? -38.0°
Reaches altitude 10° 03:32:07 10° 21° (NNE) 3,584 ? -37.5°
Maximum altitude 03:40:31 75° 107° (ESE) 1,505 ? -36.1°
Enters shadow 03:43:09 49° 179° (S) 1,822 ? -35.6°
